Theta_e
360 361 360 359 358 356 355 355 356 359 360 358 357 359 358 362 366 366 365 368 366 367 368 372 371 370 367 370 376 368 370 371 369 368 367 368 366 362 360 361 362 362
360 361 362 360 359 359 358 355 356 356 360 362 360 359 361 363 362 365 367 367 367 365 369 367 369 370 370 370 371 369 369 371 366 364 369 367 365 363 361 361 360 364
360 360 360 358 355 358 354 356 358 357 355 358 360 363 361 361 364 365 366 365 364 362 365 367 369 370 369 370 373 369 367 369 368 365 367 368 365 364 365 360 360 361
363 361 358 357 355 355 356 355 356 358 355 354 355 355 359 358 361 363 365 365 363 363 362 363 364 364 366 367 369 367 367 367 366 368 366 368 368 364 364 364 362 361
363 361 358 358 357 357 357 354 353 354 354 353 354 356 356 359 360 360 362 363 365 362 363 363 363 363 364 365 366 365 364 361 363 366 364 363 368 365 362 363 364 363
366 364 362 359 358 357 354 354 354 352 354 350 352 352 354 356 357 358 360 361 360 358 356 358 360 360 360 363 364 364 360 356 358 363 362 363 361 360 358 359 361 360
364 365 361 359 357 357 356 355 356 356 352 352 354 353 353 353 357 358 360 360 359 358 355 358 360 360 360 361 363 363 362 363 362 362 362 362 363 361 359 360 361 361
363 364 364 360 357 356 356 354 355 356 356 353 349 353 353 351 357 357 357 357 357 358 359 356 359 362 358 359 360 362 362 358 358 362 363 362 363 362 361 359 360 361
362 362 364 361 356 354 353 352 353 356 358 354 350 349 354 354 352 355 357 357 358 358 360 358 362 360 361 360 360 361 362 358 354 358 359 359 359 360 359 360 359 360
363 361 360 359 355 353 351 351 349 352 356 354 351 349 347 354 354 353 355 359 357 358 359 361 360 360 360 360 359 361 362 363 360 358 356 358 357 357 356 356 356 357
360 359 358 358 355 353 352 350 348 347 351 352 352 349 346 349 354 355 357 358 355 357 358 360 360 362 362 358 358 359 361 361 362 360 358 358 358 357 356 357 355 354
360 359 357 357 357 354 352 351 349 348 347 349 351 350 348 345 350 353 353 356 358 359 359 360 362 362 363 363 357 355 358 359 359 359 358 358 358 355 355 355 353 354
359 359 359 357 357 357 354 352 351 349 347 347 350 350 349 346 345 351 354 354 357 359 357 359 360 360 363 363 361 359 356 358 355 356 355 355 356 355 353 353 352 352
358 360 360 362 361 363 359 354 352 351 351 350 351 351 348 347 345 345 350 354 355 357 359 359 359 359 361 362 362 359 355 354 356 355 352 352 352 353 352 350 350 350
362 360 361 364 362 363 360 358 355 355 355 354 353 351 350 349 347 345 346 350 354 357 358 356 352 355 357 359 359 360 358 352 352 353 353 351 350 349 351 351 350 347
363 364 365 364 363 362 364 362 359 358 355 354 354 352 355 356 356 352 348 347 350 354 356 354 352 349 355 348 353 358 358 351 349 352 354 352 351 349 346 346 346 347
358 361 363 363 365 365 365 366 364 360 359 363 359 357 360 364 357 354 351 348 348 349 352 352 351 348 343 335 337 344 356 356 352 352 355 354 351 355 352 348 345 344
359 362 363 363 364 367 368 367 366 364 362 362 359 358 363 359 357 357 358 354 351 350 349 350 351 347 332 332 335 335 345 356 351 350 347 348 350 351 351 351 349 345
356 357 361 361 363 363 367 367 367 365 361 359 358 360 360 362 363 359 359 359 357 354 350 350 350 341 331 329 332 332 334 348 349 347 344 344 345 349 350 352 352 350
351 348 347 349 355 358 361 364 365 365 361 359 357 359 360 359 360 361 360 362 361 360 358 355 353 345 329 326 328 329 331 339 354 349 346 343 346 344 344 348 357 357
350 350 351 351 351 353 356 354 356 359 361 360 357 357 358 360 359 360 361 362 360 360 360 357 355 340 328 323 323 325 328 336 355 352 352 352 350 349 352 348 354 354
344 343 347 352 355 356 354 353 353 353 355 360 359 357 359 359 361 360 360 360 360 361 358 358 358 335 328 322 320 322 326 346 355 356 354 354 355 355 355 357 354 353
343 343 345 348 352 355 353 352 353 354 356 358 358 355 356 357 359 358 361 360 360 360 359 360 359 344 325 320 318 319 327 351 355 355 355 355 355 357 358 357 356 357
344 342 343 345 347 350 356 359 360 358 356 357 353 355 358 358 358 359 360 360 359 359 359 359 359 350 323 318 316 317 333 353 356 354 355 356 356 358 358 359 360 359
345 345 343 343 345 348 351 353 355 356 356 358 360 359 358 361 361 360 358 359 358 358 361 358 359 350 324 318 316 315 332 356 356 356 355 355 355 356 359 359 360 361
341 345 344 344 345 347 349 352 354 357 358 359 359 359 357 358 360 358 358 359 358 358 358 358 358 359 355 318 316 313 319 355 359 356 355 355 357 357 358 360 361 362
Wind_Speed
10 9 9 9 8 8 7 8 7 7 6 6 6 6 6 5 5 6 6 6 6 6 5 4 4 4 3 3 3 3 2 3 3 3 3 3 4 4 3 1 3 3
12 11 9 9 8 7 8 8 8 7 7 6 5 5 6 6 7 6 6 6 6 6 5 5 5 5 4 4 4 4 3 4 4 3 3 4 4 4 4 4 4 2
13 12 12 12 10 11 11 9 8 8 8 8 7 6 6 7 7 7 6 6 6 6 6 5 5 5 5 5 4 4 5 4 5 4 4 4 4 4 4 4 3 3
14 13 13 13 11 11 11 10 9 8 8 8 9 8 6 6 7 7 7 7 6 6 6 7 6 6 6 6 5 5 4 5 5 4 4 4 4 5 5 4 4 3
15 14 13 12 11 10 10 10 11 10 10 8 9 8 8 6 7 8 8 8 7 7 6 7 7 7 6 6 6 5 5 5 5 5 5 5 5 5 5 4 4 4
14 13 12 12 12 11 11 11 11 11 11 11 10 9 9 9 8 8 8 9 9 8 8 8 8 7 8 7 7 6 6 6 5 6 6 6 6 5 5 5 5 5
15 14 15 13 14 13 12 11 11 11 11 10 9 9 9 10 10 9 9 9 9 8 9 8 7 8 7 7 7 7 6 6 6 5 6 6 6 6 6 5 5 5
15 14 14 13 14 14 13 13 11 11 11 10 11 10 10 11 11 10 10 10 10 9 9 9 8 7 8 7 7 7 8 7 7 7 6 6 6 6 6 6 5 6
14 14 14 15 15 14 15 14 13 12 11 12 12 11 11 10 11 11 10 10 10 9 9 9 7 9 9 8 7 8 8 8 7 8 8 8 7 8 7 7 7 6
13 13 15 15 15 13 15 15 14 13 12 12 13 11 11 11 11 11 11 9 10 10 10 9 9 9 9 9 9 9 9 8 8 7 7 8 8 8 8 8 8 7
15 15 14 15 15 14 15 15 15 14 13 13 13 13 12 12 11 11 10 10 11 11 11 10 10 10 10 10 10 9 10 9 9 8 8 8 8 7 7 7 7 8
14 14 15 15 15 15 15 15 14 13 13 13 13 13 13 12 12 12 11 11 11 11 11 11 10 10 10 10 11 11 10 10 9 9 9 9 9 9 9 8 8 8
14 13 13 14 14 14 13 13 13 14 14 13 13 13 13 13 13 12 11 12 12 12 12 11 11 11 10 10 11 10 10 10 10 10 10 9 10 10 10 10 10 10
12 12 13 12 12 11 12 13 13 14 13 13 12 14 13 14 14 13 13 12 12 12 12 11 12 12 11 11 11 11 11 11 10 10 11 11 11 11 11 11 11 11
8 10 11 10 11 11 12 13 12 13 12 11 11 12 12 13 13 13 13 13 12 12 12 12 12 12 11 12 12 12 12 12 12 12 12 11 11 11 11 11 11 11
7 8 8 9 11 11 11 12 12 12 12 13 12 12 10 9 10 11 12 13 13 13 12 12 12 11 12 16 14 11 12 11 11 11 11 11 10 11 12 12 12 12
9 9 8 10 10 10 10 10 11 11 10 9 10 11 10 9 9 12 13 13 13 13 14 12 12 11 14 17 17 15 12 11 11 10 10 11 12 10 10 12 12 13
8 8 9 8 9 8 9 9 9 9 9 10 10 11 9 11 12 12 12 13 12 13 13 13 12 12 14 18 18 18 14 12 12 11 11 12 12 12 12 12 13 13
11 11 8 7 7 8 7 8 8 9 10 10 12 11 11 11 11 12 13 13 12 12 14 14 13 15 15 18 19 19 19 16 13 13 13 13 13 13 13 12 11 11
4 5 8 10 9 9 11 8 9 10 11 11 11 11 11 12 13 13 12 11 11 12 12 13 15 14 16 19 19 20 19 16 14 15 14 14 12 13 13 13 11 11
7 4 5 6 5 5 6 6 10 10 11 10 11 11 12 12 13 13 12 13 13 12 12 13 13 14 13 17 19 20 20 16 14 14 13 13 14 14 12 14 11 11
8 8 8 7 8 6 6 8 9 11 10 12 12 12 10 12 12 12 13 13 14 14 13 13 13 14 15 16 17 17 18 11 12 12 13 13 13 13 13 12 13 13
5 8 8 8 9 8 6 5 6 6 7 7 11 14 13 12 12 13 11 12 13 13 14 12 13 12 15 16 17 18 13 10 11 11 12 13 13 12 12 13 13 13
2 4 7 7 8 8 8 6 5 3 4 5 10 14 14 12 11 10 11 12 14 14 14 13 13 12 14 16 17 18 16 11 10 11 12 11 12 12 12 12 13 16
6 4 4 6 7 8 8 6 5 6 6 6 9 10 13 11 10 10 11 11 13 15 14 15 13 13 16 17 18 19 16 10 11 10 11 12 12 12 12 12 12 12
7 5 3 4 6 8 8 6 5 6 8 10 11 10 11 11 11 12 12 12 11 13 12 14 15 13 12 19 20 20 21 12 11 11 12 13 12 11 11 11 12 12
Wind_Direction
190 191 193 198 197 198 200 198 201 199 205 201 196 197 202 193 198 185 190 180 186 201 188 195 191 199 209 210 209 228 258 216 264 181 216 227 224 235 249 256 286 272
192 192 194 196 194 204 202 203 196 205 200 213 207 199 198 194 192 198 192 189 188 200 196 195 202 209 221 219 200 221 221 227 230 225 209 218 250 261 252 238 253 266
190 191 194 196 199 197 203 200 201 201 202 202 207 207 200 199 196 189 196 202 197 200 193 205 203 210 215 225 220 218 215 224 238 237 218 222 247 250 272 281 244 211
192 196 194 200 204 196 202 199 200 203 205 203 203 205 212 202 190 194 200 204 206 205 200 197 210 207 209 217 223 233 231 228 232 246 243 235 239 250 246 241 272 278
191 195 198 201 202 202 197 204 205 197 208 204 201 205 200 209 203 199 197 197 210 207 202 206 201 211 205 213 215 231 237 233 224 222 236 242 242 241 247 248 253 258
190 191 200 199 199 201 203 202 207 206 202 205 206 201 202 196 211 209 201 202 201 210 211 206 205 207 208 202 215 223 231 238 218 207 229 236 246 242 245 232 229 242
186 191 196 197 200 199 204 206 202 210 207 210 198 209 204 198 203 210 207 208 212 205 213 212 205 207 205 204 205 214 225 236 259 241 223 230 235 254 264 258 246 252
190 190 193 194 201 198 204 204 208 202 210 207 208 201 208 207 199 206 208 210 209 210 214 217 205 206 211 206 204 208 218 217 221 234 241 243 246 247 246 260 255 240
195 192 191 197 199 202 203 206 202 206 202 207 211 203 199 215 205 206 204 206 214 209 209 218 213 203 211 216 208 207 215 227 224 212 220 231 234 239 246 247 249 250
194 196 196 199 203 204 206 206 204 201 201 207 209 213 201 200 215 210 203 200 207 213 210 214 213 215 212 214 216 211 214 217 229 231 223 220 230 237 231 231 238 239
195 198 200 201 207 207 207 207 208 203 198 204 207 213 214 199 198 210 206 200 206 207 210 210 214 214 217 223 215 213 217 219 218 220 227 228 231 232 240 243 240 241
200 201 205 203 206 211 210 209 208 209 202 196 207 210 214 214 196 199 205 203 206 208 209 209 212 215 215 222 226 221 214 222 221 221 221 223 225 228 230 232 237 239
206 204 208 211 207 212 214 211 212 212 212 205 199 209 209 213 209 199 199 204 204 208 209 208 208 213 216 217 226 234 229 220 226 221 224 224 226 230 232 229 231 234
223 207 210 210 212 211 215 218 214 216 212 216 209 202 211 213 215 207 200 204 205 207 209 208 206 210 212 216 219 225 227 228 226 231 227 225 229 229 233 237 234 235
213 222 209 209 213 211 211 219 221 218 218 214 216 219 208 214 221 219 209 202 206 208 210 210 210 208 210 210 214 215 224 227 226 227 231 236 236 235 232 234 243 248
239 235 229 213 211 209 211 211 217 222 220 215 216 218 224 215 222 226 226 212 205 207 212 215 216 216 202 201 202 212 215 225 226 226 230 234 235 238 244 244 243 244
235 233 236 234 218 208 208 210 213 216 222 220 216 217 218 217 221 227 232 234 222 212 213 219 223 222 194 188 196 207 217 218 225 231 228 230 237 237 240 244 247 247
243 242 238 241 244 222 211 210 212 216 218 215 217 215 211 218 217 219 226 232 234 232 226 222 226 230 192 186 192 199 208 221 224 227 229 230 233 237 238 240 242 247
352 312 287 276 284 278 239 217 221 215 215 215 215 214 214 212 218 219 217 223 231 230 237 235 231 218 195 189 191 195 201 211 230 234 234 236 235 232 236 238 244 245
41 16 341 332 330 316 292 264 241 222 220 222 221 217 213 216 216 219 223 224 226 226 228 234 235 225 190 187 191 195 199 202 226 232 237 242 242 242 241 237 231 236
20 342 287 266 241 252 279 294 285 283 256 236 233 220 214 214 219 218 218 221 225 225 226 230 230 229 188 190 190 193 196 197 219 230 236 238 239 240 243 247 246 239
357 344 330 312 291 260 242 225 222 234 264 274 257 245 227 217 213 221 219 218 220 224 228 228 233 215 196 187 194 196 191 197 212 223 232 239 240 238 238 235 237 240
6 326 319 320 320 301 245 238 244 236 229 249 279 262 246 233 225 221 219 222 221 220 225 230 234 218 198 191 189 191 182 206 212 220 227 234 238 239 238 236 235 233
19 313 317 320 315 314 312 273 243 251 256 239 249 259 253 242 236 232 227 222 221 225 221 223 229 219 193 193 191 181 186 201 211 217 229 230 235 236 237 237 235 231
327 321 316 321 317 315 320 334 306 269 263 265 270 276 274 270 260 249 238 232 231 227 213 220 231 222 189 193 189 184 192 207 211 221 228 233 234 235 231 235 237 230
329 322 312 312 307 310 314 309 287 283 253 235 229 240 252 253 245 246 250 249 245 238 233 220 229 232 198 190 186 186 192 201 211 217 229 232 235 237 237 232 233 235